Location: Unspecified
(37.6100°N, 2.7800°W)
Time: 01:28:12
(UTC+00:00)

ISS - Visible Passes

Search period start: 17 October 2019 00:00
Search period end: 27 October 2019 00:00
Orbit: 411 x 421 km, 51.6° (Epoch: 16 October)

Date Brightness Start Highest point End Pass type
(mag) Time Alt. Az. Time Alt. Az. Time Alt. Az.
23 Oct -1.7 05:33:24 10° SSW 05:36:22 29° SE 05:39:21 10° ENE visible
24 Oct -0.9 04:45:45 10° S 04:47:57 16° SE 04:50:09 10° E visible
25 Oct -3.8 05:32:32 11° SW 05:35:48 84° NW 05:39:11 10° NE visible
26 Oct -3.1 04:46:50 46° SSE 04:47:17 50° SE 04:50:34 10° ENE visible
